FW1747 Weather Reports


Display with metric or nautical units.
time (UTC)temp
F
wind
direction
speed
MPH
gust
MPH
rain 1hr
in
rain 24hr
in
rain mn
in
humidity
%
barometer
mb
20260508233051 68 303 0.0 0.0 0.00 0.00 0.00 48 1021.8
20260508231551 67 306 0.0 0.0 0.00 0.00 0.00 50 1021.8
20260508230048 68 272 0.0 0.0 0.00 0.00 0.00 48 1021.9
20260508224546 67 75 0.0 0.0 0.00 0.00 0.00 50 1021.9
20260508223050 67 235 0.0 0.0 0.00 0.00 0.00 49 1022.0
20260508221543 67 111 0.0 0.0 0.00 0.00 0.00 53 1022.1
20260508220041 65 108 0.0 0.0 0.00 0.00 0.00 54 1022.2
20260508214551 65 198 0.0 0.0 0.00 0.00 0.00 49 1022.4
20260508213039 65 197 0.0 0.0 0.00 0.00 0.00 53 1022.2
20260508211537 64 354 0.0 0.0 0.00 0.00 0.00 51 1022.2
20260508210035 64 1 0.0 0.0 0.00 0.00 0.00 52 1022.2
20260508204540 63 233 0.0 0.0 0.00 0.00 0.00 51 1022.3
20260508203031 64 77 0.0 0.0 0.00 0.00 0.00 52 1022.3
20260508201527 62 195 0.0 0.0 0.00 0.00 0.00 53 1022.5
20260508200030 62 220 0.0 1.0 0.00 0.00 0.00 54 1022.5
20260508194524 60 186 0.0 0.0 0.00 0.00 0.00 57 1022.5
20260508193023 61 289 0.0 0.0 0.00 0.00 0.00 54 1022.7
20260508191520 60 155 0.0 0.0 0.00 0.00 0.00 60 1022.7
20260508190023 58 139 0.0 0.0 0.00 0.00 0.00 62 1022.8
20260508184517 58 212 0.0 0.0 0.00 0.00 0.00 59 1022.9
20260508183013 57 299 0.0 0.0 0.00 0.00 0.00 62 1022.8
20260508181511 57 221 0.0 0.0 0.00 0.00 0.00 63 1022.8
20260508180016 56 204 0.0 0.0 0.00 0.00 0.00 65 1022.7
20260508174505 55 231 0.0 0.0 0.00 0.00 0.00 66 1022.6
20260508173001 54 169 0.0 3.0 0.00 0.00 0.00 68 1022.6
20260508171559 53 206 0.0 6.0 0.00 0.00 0.00 67 1022.5
20260508170057 53 237 0.0 0.0 0.00 0.00 0.00 69 1022.4
20260508164554 52 174 0.0 0.0 0.00 0.00 0.00 71 1022.2
20260508163053 52 191 0.0 0.0 0.00 0.00 0.00 72 1022.1
20260508161550 52 206 0.0 0.0 0.00 0.00 0.00 73 1021.9
20260508160114 52 229 0.0 0.0 0.00 0.00 0.00 73 1021.5
20260508154551 51 83 0.0 0.0 0.00 0.00 0.00 75 1021.9
20260508153049 51 131 0.0 0.0 0.00 0.00 0.00 77 1021.7
20260508151551 48 158 0.0 1.0 0.00 0.00 0.00 80 1021.7
20260508150048 48 131 0.0 0.0 0.00 0.00 0.00 79 1021.7
20260508144548 49 79 0.0 0.0 0.00 0.00 0.00 78 1021.8
20260508143059 49 181 0.0 0.0 0.00 0.00 0.00 78 1021.9
20260508141554 48 181 0.0 0.0 0.00 0.00 0.00 79 1021.8
20260508140048 47 181 0.0 0.0 0.00 0.00 0.00 80 1021.9
20260508134543 47 181 0.0 0.0 0.00 0.00 0.00 80 1021.5
20260508133052 46 181 0.0 0.0 0.00 0.00 0.00 80 1021.2
20260508131539 46 203 0.0 0.0 0.00 0.00 0.00 80 1020.9
20260508130036 46 181 0.0 0.0 0.00 0.00 0.00 79 1020.7
20260508124533 46 191 0.0 0.0 0.00 0.00 0.00 79 1020.5
20260508123032 47 217 0.0 0.0 0.00 0.00 0.00 78 1020.3
20260508121551 47 196 0.0 0.0 0.00 0.00 0.00 78 1019.9
20260508120031 47 287 0.0 0.0 0.00 0.00 0.00 78 1019.9
20260508114526 47 287 0.0 0.0 0.00 0.00 0.00 79 1019.9
20260508113024 47 234 0.0 0.0 0.00 0.00 0.00 80 1019.7
20260508111520 48 234 0.0 0.0 0.00 0.00 0.00 80 1019.4
20260508110018 48 234 0.0 0.0 0.00 0.00 0.00 80 1019.1
20260508104518 48 234 0.0 0.0 0.00 0.00 0.00 80 1019.0
20260508103015 48 234 0.0 0.0 0.00 0.00 0.00 79 1018.8
20260508101511 49 234 0.0 0.0 0.00 0.00 0.00 78 1018.7
20260508100010 49 234 0.0 0.0 0.00 0.00 0.00 78 1018.5
20260508094508 49 234 0.0 0.0 0.00 0.00 0.00 79 1018.4
20260508093008 49 232 0.0 0.0 0.00 0.00 0.00 79 1018.1
20260508091511 49 232 0.0 0.0 0.00 0.00 0.00 79 1018.0
20260508090005 49 232 0.0 0.0 0.00 0.00 0.00 78 1018.0
20260508084501 49 232 0.0 0.0 0.00 0.00 0.00 78 1018.1
20260508083149 49 232 0.0 0.0 0.00 0.00 0.00 77 1017.9
20260508081557 50 232 0.0 0.0 0.00 0.00 0.00 77 1017.7
20260508080100 50 232 0.0 0.0 0.00 0.00 0.00 76 1017.6
20260508074553 50 232 0.0 0.0 0.00 0.00 0.00 75 1017.7
20260508073057 51 232 0.0 0.0 0.00 0.00 0.00 74 1017.5
20260508071551 52 232 0.0 0.0 0.00 0.00 0.00 72 1017.4
20260508070046 52 232 0.0 0.0 0.00 0.00 0.00 71 1017.5
20260508064604 53 232 0.0 0.0 0.00 0.00 0.00 70 1017.4
20260508063047 53 232 0.0 0.0 0.00 0.00 0.00 69 1017.3
20260508061545 54 232 0.0 0.0 0.00 0.00 0.00 69 1017.3
20260508060045 54 232 0.0 0.0 0.00 0.00 0.00 69 1017.3
20260508054544 55 232 0.0 0.0 0.00 0.00 0.00 68 1017.3
20260508053043 55 232 0.0 0.0 0.00 0.00 0.00 66 1017.3
20260508051542 56 232 0.0 0.0 0.00 0.00 0.00 65 1017.3
20260508050046 57 232 0.0 0.0 0.00 0.00 0.00 63 1017.2
20260508044541 58 232 0.0 0.0 0.00 0.00 0.00 62 1017.2
20260508043041 59 232 0.0 0.0 0.00 0.00 0.00 61 1017.2
20260508041540 60 232 0.0 0.0 0.00 0.00 0.00 61 1017.0
20260508040040 61 232 0.0 0.0 0.00 0.00 0.00 60 1016.9
20260508034540 63 261 0.0 0.0 0.00 0.00 0.00 58 1016.7
20260508033039 63 305 0.0 0.0 0.00 0.00 0.00 56 1016.5
20260508031538 65 161 0.0 0.0 0.00 0.00 0.00 49 1016.2
20260508030038 67 48 0.0 0.0 0.00 0.00 0.00 47 1016.2
20260508024551 68 48 0.0 0.0 0.00 0.00 0.00 46 1016.2
20260508023038 69 48 0.0 0.0 0.00 0.00 0.00 44 1016.3
20260508021536 69 48 0.0 0.0 0.00 0.00 0.00 43 1016.2
20260508020039 70 46 0.0 0.0 0.00 0.00 0.00 40 1016.2
20260508014535 71 360 0.0 0.0 0.00 0.00 0.00 40 1016.2
20260508013033 71 354 0.0 0.0 0.00 0.00 0.00 39 1016.5
20260508011546 70 344 0.0 0.0 0.00 0.00 0.00 39 1016.6
20260508010034 70 32 0.0 0.0 0.00 0.00 0.00 39 1016.6
20260508004535 70 304 0.0 0.0 0.00 0.00 0.00 39 1016.6
20260508003036 69 39 0.0 0.0 0.00 0.00 0.00 41 1016.8
20260508001527 71 120 0.0 0.0 0.00 0.00 0.00 39 1016.8
20260508000026 72 358 0.0 0.0 0.00 0.00 0.00 39 1016.9
20260507234522 71 6 0.0 0.0 0.00 0.00 0.00 40 1017.0